sat.trackr.live / text

‹ back to catalog

STARLINK-31472

NORAD 59730 · 2024-090A

PAYLOAD ACTIVE UNKNOWN

§ Identity

Operator
Country
US
Launch date
2024-05-13
Launch site
AFETR
Launch vehicle
Mass (kg)
RCS (m²)

Purposes: comms

External: N2YO · Heavens-Above · Gunter

§ Orbital elements

Epoch: 2026-09-21T09:56:56.520384Z

Period
93.77 min
Inclination
42.9987°
Eccentricity
0.0010556
Mean motion
15.35658879 rev/d
Perigee alt
451.7 km
Apogee alt
466.2 km
Semi-major
6,837.1 km
B*
1.4252e-3
RAAN
155.5520°
Arg perigee
218.6006°
Mean anomaly
141.4095°
Rev number
13,340

§ Raw data

STARLINK-314721 59730U 24090A   26264.41454306  .00050635  00000+0  14252-2 0  99902 59730  42.9987 155.5520 0010556 218.6006 141.4095 15.35658879133400

JSON: /api/v1/satellites/59730 · /tle

For live sub-satellite position, see the globe view (requires WebGL).

§ Visibility from observer

Set your observer location to see the next 7 days of passes ≥ 10°. The values pass through the URL so the page stays shareable.

No JS? Fill the form by hand. The geolocation button needs JavaScript.